| time (UTC) | temp C | wind direction | speed KPH | gust KPH | rain 1hr cm | rain 24hr cm | rain mn cm | humidity % | barometer mb |
| 20260503003833 | 25 | 0 | 0.0 | 1.6 | 0.00 | 0.33 | 0.18 | 59 | 1017.2 |
| 20260503003334 | 25 | 0 | 0.0 | 1.6 | 0.00 | 0.33 | 0.18 | 59 | 1017.1 |
| 20260503002833 | 25 | 0 | 0.0 | 1.6 | 0.00 | 0.33 | 0.18 | 60 | 1017.0 |
| 20260503002554 | 25 | 0 | 0.0 | 1.6 | 0.00 | 0.33 | 0.18 | 60 | 1017.0 |
| 20260503002056 | 25 | 0 | 0.0 | 1.6 | 0.00 | 0.33 | 0.18 | 60 | 1016.9 |
| 20260503001557 | 25 | 0 | 0.0 | 3.2 | 0.00 | 0.33 | 0.18 | 60 | 1016.8 |
| 20260503000833 | 25 | 156 | 0.0 | 4.8 | 0.00 | 0.33 | 0.18 | 60 | 1016.8 |
| 20260503000559 | 25 | 0 | 0.0 | 4.8 | 0.00 | 0.43 | 0.18 | 60 | 1016.7 |
| 20260502235331 | 25 | 0 | 1.6 | 4.8 | 0.00 | 0.48 | 0.18 | 60 | 1016.5 |
| 20260502234831 | 25 | 56 | 1.6 | 4.8 | 0.00 | 0.48 | 0.18 | 60 | 1016.4 |
| 20260502234331 | 25 | 225 | 0.0 | 3.2 | 0.00 | 0.48 | 0.18 | 60 | 1016.3 |
| 20260502233831 | 25 | 213 | 0.0 | 3.2 | 0.00 | 0.48 | 0.18 | 60 | 1016.3 |
| 20260502233332 | 25 | 300 | 0.0 | 3.2 | 0.00 | 0.48 | 0.18 | 60 | 1016.2 |
| 20260502232832 | 25 | 327 | 1.6 | 9.7 | 0.00 | 0.48 | 0.18 | 60 | 1016.1 |
| 20260502232331 | 25 | 297 | 1.6 | 9.7 | 0.00 | 0.48 | 0.18 | 60 | 1016.1 |
| 20260502231832 | 25 | 190 | 0.0 | 3.2 | 0.00 | 0.51 | 0.18 | 60 | 1016.0 |
| 20260502231329 | 25 | 324 | 0.0 | 8.0 | 0.00 | 0.66 | 0.18 | 60 | 1015.9 |
| 20260502231052 | 25 | 122 | 1.6 | 8.0 | 0.00 | 0.79 | 0.18 | 60 | 1016.0 |
| 20260502230555 | 25 | 19 | 1.6 | 8.0 | 0.00 | 0.81 | 0.18 | 60 | 1016.0 |
| 20260502225828 | 25 | 58 | 1.6 | 4.8 | 0.00 | 0.84 | 0.18 | 60 | 1016.0 |
| 20260502225549 | 25 | 257 | 1.6 | 4.8 | 0.00 | 0.86 | 0.18 | 60 | 1015.9 |
| 20260502225049 | 25 | 73 | 1.6 | 6.4 | 0.00 | 0.89 | 0.18 | 60 | 1015.8 |
| 20260502224325 | 25 | 140 | 1.6 | 6.4 | 0.00 | 0.91 | 0.18 | 60 | 1015.9 |
| 20260502223825 | 25 | 0 | 1.6 | 8.0 | 0.00 | 0.91 | 0.18 | 60 | 1015.8 |
| 20260502223325 | 25 | 119 | 1.6 | 8.0 | 0.00 | 0.91 | 0.18 | 60 | 1015.8 |
| 20260502222826 | 25 | 279 | 1.6 | 4.8 | 0.00 | 0.91 | 0.18 | 60 | 1015.7 |
| 20260502222326 | 24 | 292 | 1.6 | 4.8 | 0.00 | 0.91 | 0.18 | 60 | 1015.7 |
| 20260502221826 | 25 | 270 | 1.6 | 4.8 | 0.00 | 0.91 | 0.18 | 60 | 1015.7 |
| 20260502221326 | 25 | 0 | 1.6 | 4.8 | 0.00 | 0.91 | 0.18 | 60 | 1015.7 |
| 20260502220826 | 24 | 55 | 1.6 | 4.8 | 0.00 | 0.91 | 0.18 | 60 | 1015.7 |
| 20260502220326 | 25 | 121 | 0.0 | 6.4 | 0.00 | 0.91 | 0.18 | 60 | 1015.6 |
| 20260502215823 | 24 | 129 | 1.6 | 8.0 | 0.00 | 0.91 | 0.18 | 60 | 1015.6 |
| 20260502215323 | 24 | 278 | 1.6 | 8.0 | 0.00 | 0.94 | 0.18 | 60 | 1015.6 |
| 20260502214824 | 24 | 155 | 1.6 | 4.8 | 0.00 | 0.97 | 0.18 | 60 | 1015.6 |
| 20260502214324 | 24 | 212 | 1.6 | 4.8 | 0.00 | 1.02 | 0.18 | 60 | 1015.6 |
| 20260502213824 | 24 | 253 | 1.6 | 6.4 | 0.00 | 1.09 | 0.18 | 60 | 1015.6 |
| 20260502213324 | 24 | 264 | 1.6 | 6.4 | 0.00 | 1.27 | 0.18 | 60 | 1015.5 |
| 20260502212825 | 24 | 281 | 1.6 | 9.7 | 0.00 | 1.57 | 0.18 | 60 | 1015.5 |
| 20260502212324 | 24 | 250 | 1.6 | 9.7 | 0.00 | 1.70 | 0.18 | 61 | 1015.6 |
| 20260502211824 | 24 | 179 | 3.2 | 9.7 | 0.00 | 1.73 | 0.18 | 60 | 1015.5 |
| 20260502211325 | 24 | 26 | 1.6 | 9.7 | 0.00 | 1.73 | 0.18 | 60 | 1015.5 |
| 20260502210825 | 24 | 211 | 1.6 | 8.0 | 0.00 | 1.73 | 0.18 | 60 | 1015.5 |
| 20260502210325 | 24 | 115 | 3.2 | 8.0 | 0.00 | 1.73 | 0.18 | 60 | 1015.5 |
| 20260502205824 | 24 | 308 | 1.6 | 6.4 | 0.00 | 1.75 | 0.18 | 60 | 1015.5 |
| 20260502205322 | 24 | 14 | 1.6 | 6.4 | 0.00 | 1.75 | 0.18 | 60 | 1015.6 |
| 20260502204821 | 24 | 0 | 1.6 | 4.8 | 0.00 | 1.75 | 0.18 | 60 | 1015.7 |
| 20260502204321 | 24 | 0 | 1.6 | 6.4 | 0.00 | 1.75 | 0.18 | 60 | 1015.7 |
| 20260502203819 | 24 | 258 | 1.6 | 6.4 | 0.00 | 1.78 | 0.18 | 60 | 1015.6 |
| 20260502203315 | 24 | 259 | 1.6 | 6.4 | 0.00 | 1.98 | 0.18 | 60 | 1015.7 |
| 20260502203041 | 24 | 184 | 1.6 | 6.4 | 0.00 | 2.31 | 0.18 | 60 | 1015.8 |
| 20260502202316 | 24 | 347 | 1.6 | 8.0 | 0.00 | 2.49 | 0.18 | 60 | 1015.9 |
| 20260502201816 | 24 | 115 | 1.6 | 8.0 | 0.00 | 2.62 | 0.18 | 60 | 1015.9 |
| 20260502201316 | 24 | 189 | 1.6 | 8.0 | 0.00 | 2.77 | 0.18 | 60 | 1015.8 |
| 20260502200817 | 24 | 58 | 1.6 | 4.8 | 0.00 | 2.84 | 0.18 | 60 | 1015.9 |
| 20260502200316 | 24 | 235 | 1.6 | 4.8 | 0.00 | 2.87 | 0.18 | 60 | 1016.0 |
| 20260502195816 | 23 | 83 | 1.6 | 4.8 | 0.00 | 2.92 | 0.18 | 60 | 1016.0 |
| 20260502195317 | 23 | 143 | 1.6 | 6.4 | 0.00 | 2.97 | 0.18 | 60 | 1016.1 |
| 20260502194816 | 23 | 260 | 1.6 | 8.0 | 0.00 | 2.97 | 0.18 | 60 | 1016.0 |
| 20260502194314 | 23 | 98 | 1.6 | 8.0 | 0.00 | 3.02 | 0.18 | 60 | 1016.0 |
| 20260502194033 | 23 | 176 | 1.6 | 6.4 | 0.00 | 3.05 | 0.18 | 60 | 1016.1 |
| 20260502193311 | 23 | 281 | 1.6 | 6.4 | 0.00 | 3.23 | 0.18 | 60 | 1016.1 |
| 20260502192811 | 23 | 249 | 1.6 | 8.0 | 0.00 | 3.33 | 0.18 | 60 | 1016.1 |
| 20260502192307 | 23 | 250 | 1.6 | 8.0 | 0.00 | 3.48 | 0.18 | 60 | 1016.2 |
| 20260502191810 | 23 | 277 | 1.6 | 6.4 | 0.00 | 3.78 | 0.18 | 60 | 1016.1 |
| 20260502191310 | 23 | 253 | 1.6 | 6.4 | 0.00 | 4.17 | 0.18 | 60 | 1016.2 |
| 20260502190809 | 23 | 255 | 1.6 | 6.4 | 0.00 | 4.32 | 0.18 | 60 | 1016.1 |
| 20260502190310 | 23 | 3 | 1.6 | 6.4 | 0.00 | 4.37 | 0.18 | 60 | 1016.1 |
| 20260502190033 | 23 | 351 | 1.6 | 6.4 | 0.00 | 4.42 | 0.18 | 60 | 1016.1 |
| 20260502185310 | 23 | 341 | 1.6 | 6.4 | 0.00 | 4.45 | 0.18 | 60 | 1016.0 |
| 20260502184810 | 23 | 103 | 1.6 | 8.0 | 0.00 | 4.47 | 0.18 | 60 | 1016.0 |
| 20260502184310 | 23 | 187 | 1.6 | 8.0 | 0.00 | 4.47 | 0.18 | 60 | 1016.0 |
| 20260502183810 | 23 | 242 | 1.6 | 4.8 | 0.00 | 4.50 | 0.18 | 60 | 1016.0 |
| 20260502183309 | 23 | 259 | 1.6 | 9.7 | 0.00 | 4.52 | 0.18 | 60 | 1016.0 |
| 20260502182810 | 23 | 261 | 1.6 | 9.7 | 0.00 | 4.52 | 0.18 | 59 | 1016.0 |
| 20260502182026 | 23 | 127 | 1.6 | 6.4 | 0.00 | 4.57 | 0.18 | 59 | 1016.2 |
| 20260502181531 | 23 | 114 | 1.6 | 6.4 | 0.00 | 4.57 | 0.18 | 59 | 1016.2 |
| 20260502181032 | 23 | 349 | 1.6 | 6.4 | 0.00 | 4.57 | 0.18 | 59 | 1016.3 |
| 20260502180528 | 23 | 286 | 1.6 | 6.4 | 0.00 | 4.60 | 0.18 | 59 | 1016.1 |
| 20260502170301 | 23 | 141 | 1.6 | 6.4 | 0.00 | 4.60 | 0.18 | 59 | 1016.8 |
| 20260502163018 | 23 | 162 | 1.6 | 8.0 | 0.00 | 4.60 | 0.18 | 59 | 1017.1 |
| 20260502162304 | 23 | 241 | 1.6 | 6.4 | 0.00 | 4.60 | 0.18 | 59 | 1017.0 |
| 20260502161801 | 23 | 279 | 1.6 | 6.4 | 0.00 | 4.60 | 0.18 | 58 | 1017.1 |
| 20260502161258 | 23 | 305 | 1.6 | 6.4 | 0.00 | 4.60 | 0.18 | 59 | 1017.1 |
| 20260502160759 | 23 | 300 | 1.6 | 9.7 | 0.00 | 4.60 | 0.18 | 58 | 1017.1 |
| 20260502160258 | 23 | 25 | 1.6 | 9.7 | 0.00 | 4.60 | 0.18 | 58 | 1017.1 |
| 20260502152256 | 23 | 296 | 1.6 | 4.8 | 0.00 | 4.60 | 0.18 | 58 | 1017.0 |
| 20260502151758 | 23 | 307 | 1.6 | 4.8 | 0.00 | 4.60 | 0.18 | 58 | 1017.0 |
| 20260502151521 | 23 | 270 | 1.6 | 4.8 | 0.00 | 4.60 | 0.18 | 58 | 1017.0 |
| 20260502150743 | 23 | 102 | 1.6 | 4.8 | 0.00 | 4.60 | 0.18 | 58 | 1016.9 |
| 20260502150241 | 23 | 152 | 1.6 | 4.8 | 0.00 | 4.60 | 0.18 | 58 | 1016.9 |
| 20260502130716 | 23 | 149 | 3.2 | 4.8 | 0.00 | 4.60 | 0.18 | 58 | 1015.2 |
| 20260502130436 | 23 | 96 | 3.2 | 4.8 | 0.00 | 4.60 | 0.18 | 58 | 1015.3 |
| 20260502123159 | 23 | 114 | 3.2 | 4.8 | 0.00 | 4.60 | 0.18 | 58 | 1015.0 |
| 20260502122647 | 23 | 106 | 1.6 | 4.8 | 0.00 | 4.60 | 0.18 | 58 | 1015.0 |
| 20260502122145 | 23 | 107 | 3.2 | 4.8 | 0.00 | 4.60 | 0.18 | 58 | 1015.1 |
| 20260502121646 | 23 | 163 | 3.2 | 4.8 | 0.00 | 4.60 | 0.18 | 58 | 1015.0 |
| 20260502121405 | 23 | 113 | 1.6 | 3.2 | 0.00 | 4.60 | 0.18 | 58 | 1014.8 |
| 20260502120907 | 23 | 186 | 3.2 | 4.8 | 0.00 | 4.60 | 0.18 | 58 | 1014.9 |
| 20260502120145 | 23 | 149 | 3.2 | 4.8 | 0.00 | 4.60 | 0.18 | 58 | 1014.9 |
| 20260502115647 | 23 | 100 | 3.2 | 4.8 | 0.00 | 4.60 | 0.18 | 58 | 1014.7 |
| 20260502115146 | 23 | 104 | 3.2 | 4.8 | 0.00 | 4.60 | 0.18 | 58 | 1014.6 |
| 20260502114648 | 23 | 193 | 3.2 | 4.8 | 0.00 | 4.60 | 0.18 | 58 | 1014.6 |
| 20260502114146 | 23 | 90 | 3.2 | 4.8 | 0.00 | 4.60 | 0.18 | 58 | 1014.7 |
| 20260502113646 | 23 | 185 | 3.2 | 3.2 | 0.00 | 4.60 | 0.18 | 58 | 1014.5 |
| 20260502113408 | 23 | 162 | 3.2 | 3.2 | 0.00 | 4.60 | 0.18 | 58 | 1014.5 |
| 20260502112646 | 23 | 112 | 3.2 | 4.8 | 0.00 | 4.60 | 0.18 | 58 | 1014.3 |
| 20260502112145 | 23 | 112 | 3.2 | 4.8 | 0.00 | 4.60 | 0.18 | 58 | 1014.3 |
| 20260502111647 | 23 | 102 | 3.2 | 4.8 | 0.00 | 4.60 | 0.18 | 58 | 1014.3 |
| 20260502111408 | 23 | 148 | 3.2 | 4.8 | 0.00 | 4.60 | 0.18 | 58 | 1014.2 |
| 20260502110646 | 23 | 81 | 3.2 | 4.8 | 0.00 | 4.60 | 0.18 | 58 | 1014.2 |
| 20260502110146 | 23 | 249 | 3.2 | 4.8 | 0.00 | 4.60 | 0.18 | 58 | 1014.2 |
| 20260502105646 | 23 | 154 | 3.2 | 4.8 | 0.00 | 4.60 | 0.18 | 58 | 1014.1 |
| 20260502105146 | 23 | 100 | 3.2 | 4.8 | 0.00 | 4.60 | 0.18 | 58 | 1013.9 |
| 20260502104647 | 23 | 165 | 3.2 | 4.8 | 0.00 | 4.60 | 0.18 | 58 | 1013.9 |
| 20260502104145 | 23 | 197 | 3.2 | 4.8 | 0.00 | 4.60 | 0.18 | 58 | 1013.9 |
| 20260502103908 | 23 | 111 | 3.2 | 4.8 | 0.00 | 4.60 | 0.18 | 58 | 1013.9 |
| 20260502103145 | 23 | 108 | 3.2 | 4.8 | 0.00 | 4.60 | 0.18 | 58 | 1013.7 |
| 20260502102633 | 23 | 177 | 3.2 | 4.8 | 0.00 | 4.60 | 0.18 | 58 | 1013.7 |
| 20260502102131 | 23 | 182 | 3.2 | 4.8 | 0.00 | 4.60 | 0.18 | 58 | 1013.8 |
| 20260502101856 | 23 | 170 | 3.2 | 4.8 | 0.00 | 4.60 | 0.18 | 58 | 1013.7 |
| 20260502101354 | 23 | 132 | 3.2 | 4.8 | 0.00 | 4.60 | 0.18 | 59 | 1013.6 |
| 20260502100632 | 23 | 112 | 3.2 | 4.8 | 0.00 | 4.60 | 0.18 | 58 | 1013.5 |
| 20260502100131 | 23 | 229 | 3.2 | 4.8 | 0.00 | 4.60 | 0.18 | 59 | 1013.5 |
| 20260502091120 | 23 | 155 | 3.2 | 8.0 | 0.00 | 4.60 | 0.18 | 59 | 1013.2 |
| 20260502090621 | 23 | 134 | 3.2 | 8.0 | 0.00 | 4.60 | 0.18 | 59 | 1013.0 |
| 20260502090119 | 23 | 193 | 3.2 | 4.8 | 0.00 | 4.60 | 0.18 | 59 | 1013.0 |
| 20260502080104 | 23 | 118 | 3.2 | 6.4 | 0.08 | 4.60 | 0.18 | 59 | 1012.1 |
| 20260502070553 | 23 | 169 | 3.2 | 6.4 | 0.05 | 4.52 | 0.10 | 59 | 1013.4 |
| 20260502070309 | 23 | 114 | 3.2 | 6.4 | 0.05 | 4.52 | 0.10 | 59 | 1013.9 |
| 20260502065551 | 23 | 163 | 3.2 | 6.4 | 0.05 | 4.50 | 0.08 | 59 | 1013.8 |
| 20260502065312 | 23 | 91 | 3.2 | 6.4 | 0.05 | 4.47 | 0.05 | 59 | 1013.0 |
| 20260502064551 | 23 | 81 | 3.2 | 6.4 | 0.05 | 4.47 | 0.05 | 59 | 1013.0 |
| 20260502064050 | 23 | 92 | 3.2 | 6.4 | 0.05 | 4.47 | 0.05 | 59 | 1012.4 |
| 20260502063552 | 23 | 89 | 3.2 | 6.4 | 0.05 | 4.47 | 0.05 | 59 | 1012.2 |
| 20260502063050 | 23 | 149 | 3.2 | 6.4 | 0.05 | 4.47 | 0.05 | 59 | 1012.4 |
| 20260502062552 | 23 | 4 | 3.2 | 6.4 | 0.05 | 4.47 | 0.05 | 60 | 1012.4 |
| 20260502062051 | 23 | 145 | 3.2 | 6.4 | 0.05 | 4.47 | 0.05 | 59 | 1012.6 |
| 20260502061812 | 23 | 348 | 3.2 | 6.4 | 0.05 | 4.47 | 0.05 | 59 | 1012.4 |
| 20260502061051 | 23 | 72 | 4.8 | 6.4 | 0.05 | 4.47 | 0.05 | 60 | 1013.6 |
| 20260502060552 | 23 | 161 | 3.2 | 6.4 | 0.05 | 4.47 | 0.05 | 60 | 1013.1 |
| 20260502060051 | 23 | 354 | 3.2 | 4.8 | 0.03 | 4.45 | 0.03 | 60 | 1013.4 |
| 20260502055553 | 23 | 144 | 3.2 | 6.4 | 0.00 | 4.42 | 0.00 | 60 | 1013.4 |
| 20260502055036 | 23 | 78 | 3.2 | 6.4 | 0.00 | 4.42 | 0.00 | 60 | 1014.1 |
| 20260502054537 | 23 | 185 | 3.2 | 6.4 | 0.00 | 4.42 | 0.00 | 60 | 1013.8 |
| 20260502054036 | 23 | 108 | 3.2 | 6.4 | 0.00 | 4.42 | 0.00 | 60 | 1013.8 |
| 20260502053537 | 23 | 341 | 3.2 | 6.4 | 0.00 | 4.42 | 0.00 | 60 | 1013.8 |
| 20260502053037 | 23 | 149 | 3.2 | 6.4 | 0.00 | 4.42 | 0.00 | 60 | 1013.6 |
| 20260502052537 | 23 | 77 | 3.2 | 6.4 | 0.00 | 4.42 | 0.00 | 60 | 1012.9 |
| 20260502052036 | 23 | 81 | 3.2 | 6.4 | 0.00 | 4.42 | 0.00 | 60 | 1012.8 |
| 20260502051803 | 23 | 95 | 3.2 | 6.4 | 0.00 | 4.42 | 0.00 | 60 | 1012.8 |
| 20260502051037 | 23 | 141 | 3.2 | 6.4 | 0.00 | 4.42 | 0.00 | 60 | 1013.0 |
| 20260502050803 | 23 | 81 | 3.2 | 6.4 | 0.00 | 4.42 | 0.00 | 60 | 1012.6 |
| 20260502050037 | 23 | 144 | 3.2 | 6.4 | 0.00 | 4.42 | 0.00 | 60 | 1013.2 |
| 20260502045538 | 23 | 343 | 3.2 | 6.4 | 0.00 | 4.42 | 4.42 | 60 | 1012.7 |
| 20260502045037 | 23 | 157 | 3.2 | 6.4 | 0.03 | 4.42 | 4.42 | 60 | 1012.9 |
| 20260502044526 | 23 | 161 | 3.2 | 6.4 | 0.03 | 4.42 | 4.42 | 60 | 1012.4 |
| 20260502044022 | 23 | 336 | 3.2 | 6.4 | 0.03 | 4.42 | 4.42 | 60 | 1012.7 |
| 20260502043524 | 23 | 175 | 3.2 | 6.4 | 0.03 | 4.42 | 4.42 | 60 | 1012.8 |
| 20260502043022 | 23 | 2 | 3.2 | 6.4 | 0.03 | 4.42 | 4.42 | 60 | 1012.6 |
| 20260502042750 | 23 | 346 | 3.2 | 6.4 | 0.03 | 4.42 | 4.42 | 60 | 1012.1 |
| 20260502042022 | 23 | 9 | 3.2 | 6.4 | 0.05 | 4.42 | 4.42 | 60 | 1012.2 |
| 20260502041524 | 23 | 333 | 3.2 | 6.4 | 0.08 | 4.42 | 4.42 | 60 | 1012.2 |
| 20260502041241 | 23 | 102 | 3.2 | 6.4 | 0.08 | 4.42 | 4.42 | 60 | 1012.0 |
| 20260502040800 | 23 | 352 | 3.2 | 6.4 | 0.08 | 4.42 | 4.42 | 60 | 1012.0 |
| 20260502040022 | 23 | 209 | 3.2 | 6.4 | 0.08 | 4.42 | 4.42 | 60 | 1012.0 |
| 20260502035524 | 23 | 176 | 3.2 | 4.8 | 0.13 | 4.42 | 4.42 | 60 | 1011.9 |
| 20260502035020 | 23 | 342 | 3.2 | 4.8 | 0.13 | 4.39 | 4.39 | 60 | 1012.1 |
| 20260502034521 | 23 | 92 | 3.2 | 8.0 | 0.13 | 4.39 | 4.39 | 60 | 1012.2 |
| 20260502034019 | 23 | 161 | 3.2 | 8.0 | 0.13 | 4.39 | 4.39 | 60 | 1012.3 |
| 20260502033741 | 23 | 342 | 3.2 | 6.4 | 0.13 | 4.39 | 4.39 | 60 | 1012.0 |
| 20260502033021 | 23 | 91 | 3.2 | 4.8 | 0.13 | 4.39 | 4.39 | 60 | 1012.0 |
| 20260502032521 | 23 | 349 | 3.2 | 6.4 | 0.10 | 4.37 | 4.37 | 60 | 1012.1 |
| 20260502032021 | 23 | 108 | 3.2 | 6.4 | 0.08 | 4.37 | 4.37 | 60 | 1012.3 |
| 20260502031745 | 23 | 86 | 3.2 | 6.4 | 0.08 | 4.34 | 4.34 | 60 | 1012.4 |
| 20260502031021 | 23 | 337 | 3.2 | 6.4 | 0.08 | 4.34 | 4.34 | 60 | 1012.4 |
| 20260502030746 | 23 | 9 | 3.2 | 6.4 | 0.08 | 4.34 | 4.34 | 60 | 1012.2 |
| 20260502030021 | 23 | 337 | 3.2 | 6.4 | 0.05 | 4.34 | 4.34 | 60 | 1012.1 |
| 20260502030008 | 23 | 346 | 3.2 | 8.0 | 0.03 | 4.29 | 4.29 | 60 | 1012.3 |
| 20260502025012 | 23 | 303 | 3.2 | 8.0 | 0.00 | 4.29 | 4.29 | 60 | 1012.5 |
| 20260502024731 | 24 | 71 | 3.2 | 6.4 | 0.00 | 4.29 | 4.29 | 60 | 1012.1 |
| 20260502023956 | 23 | 68 | 3.2 | 6.4 | 0.00 | 4.29 | 4.29 | 60 | 1012.1 |
| 20260502023459 | 24 | 334 | 3.2 | 6.4 | 0.00 | 4.29 | 4.29 | 60 | 1012.2 |
| 20260502022957 | 24 | 342 | 3.2 | 6.4 | 0.00 | 4.29 | 4.29 | 60 | 1011.8 |
| 20260502022719 | 24 | 335 | 3.2 | 4.8 | 0.00 | 4.29 | 4.29 | 60 | 1011.4 |
| 20260502021957 | 23 | 84 | 3.2 | 4.8 | 0.00 | 4.29 | 4.29 | 60 | 1011.5 |
| 20260502021456 | 24 | 176 | 3.2 | 6.4 | 0.00 | 4.29 | 4.29 | 60 | 1011.4 |
| 20260502020954 | 23 | 335 | 3.2 | 6.4 | 0.00 | 4.29 | 4.29 | 60 | 1011.3 |
| 20260502020501 | 24 | 2 | 3.2 | 4.8 | 0.00 | 4.29 | 4.29 | 60 | 1010.9 |
| 20260502015954 | 24 | 71 | 3.2 | 4.8 | 0.00 | 4.29 | 4.29 | 60 | 1011.1 |
| 20260502015456 | 23 | 350 | 3.2 | 6.4 | 0.00 | 4.29 | 4.29 | 60 | 1011.4 |
| 20260502014954 | 23 | 146 | 3.2 | 6.4 | 0.00 | 4.29 | 4.29 | 60 | 1011.2 |
| 20260502014456 | 24 | 180 | 3.2 | 9.7 | 0.00 | 4.29 | 4.29 | 60 | 1011.5 |
| 20260502013954 | 24 | 75 | 3.2 | 9.7 | 0.00 | 4.29 | 4.29 | 60 | 1011.6 |
| 20260502013456 | 23 | 188 | 3.2 | 8.0 | 0.00 | 4.29 | 4.29 | 60 | 1011.2 |
| 20260502012955 | 24 | 87 | 3.2 | 4.8 | 0.00 | 4.29 | 4.29 | 60 | 1011.1 |
| 20260502012456 | 23 | 86 | 3.2 | 6.4 | 0.00 | 4.29 | 4.29 | 60 | 1010.6 |
| 20260502011954 | 23 | 108 | 3.2 | 8.0 | 0.00 | 4.29 | 4.29 | 60 | 1010.5 |
| 20260502011455 | 24 | 167 | 4.8 | 11.3 | 0.00 | 4.29 | 4.29 | 60 | 1010.2 |
| 20260502010955 | 24 | 213 | 4.8 | 11.3 | 0.00 | 4.29 | 4.29 | 60 | 1010.1 |
| 20260502010716 | 24 | 186 | 3.2 | 6.4 | 0.05 | 4.29 | 4.29 | 60 | 1010.9 |
| 20260502005953 | 24 | 88 | 3.2 | 6.4 | 0.15 | 4.29 | 4.29 | 60 | 1010.9 |
| 20260502005441 | 24 | 77 | 3.2 | 6.4 | 0.15 | 4.29 | 4.29 | 60 | 1010.7 |
| 20260502004938 | 24 | 151 | 3.2 | 6.4 | 0.15 | 4.29 | 4.29 | 60 | 1011.1 |
| 20260502004701 | 23 | 181 | 3.2 | 4.8 | 0.15 | 4.29 | 4.29 | 61 | 1011.2 |
| 20260502004200 | 24 | 162 | 3.2 | 4.8 | 0.15 | 4.29 | 4.29 | 61 | 1011.4 |